Location: Rowland
(34.5359°N, 79.2929°W)
Time: 17:52:53
(UTC+00:00)

S-56A Canister/Altair - Pass Details

Date: 09 October 2022
Orbit: 638 x 2494 km, 38.9° (Epoch: 06 December)

Event Time Altitude Azimuth Distance (km) Brightness Sun altitude
Exits shadow 06:21:57 13° 75° (ENE) 3,348 11.0 -56.6°
Drops below altitude 10° 06:22:32 10° 76° (ENE) 3,516 11.1 -56.5°
Sets 06:25:03 0° 78° (ENE) 4,273 11.7 -56.2°
